Time,TemperatureF,DewpointF,PressureIn,WindDirection,WindDirectionDegrees,WindSpeedMPH,WindSpeedGustMPH,Humidity,HourlyPrecipIn,Conditions,Clouds,dailyrainin,SoftwareType,DateUTC
2013-07-02 00:04:00,70.2,11.1,29.98,SW,225,1.8,2.5,1,0.00,,,0.00,WUHU216HW,2013-07-02 04:04:00,
2013-07-02 00:09:00,70.2,11.1,29.99,SE,135,2.5,2.5,1,0.00,,,0.00,WUHU216HW,2013-07-02 04:09:00,
2013-07-02 00:14:00,70.2,11.1,29.98,WSW,248,2.9,3.4,1,0.00,,,0.00,WUHU216HW,2013-07-02 04:14:00,
2013-07-02 00:19:00,70.2,11.1,29.98,SW,225,1.6,3.4,1,0.00,,,0.00,WUHU216HW,2013-07-02 04:19:00,
2013-07-02 00:24:00,70.2,11.1,29.98,SW,225,2.5,2.5,1,0.00,,,0.00,WUHU216HW,2013-07-02 04:24:00,
2013-07-02 00:29:00,70.2,11.1,29.99,SW,225,2.0,2.5,1,0.00,,,0.00,WUHU216HW,2013-07-02 04:29:00,
2013-07-02 00:34:00,70.2,11.1,29.99,SSW,203,1.8,3.4,1,0.00,,,0.00,WUHU216HW,2013-07-02 04:34:00,
2013-07-02 00:39:00,70.2,11.1,29.99,SW,225,2.7,3.4,1,0.00,,,0.00,WUHU216HW,2013-07-02 04:39:00,
2013-07-02 00:44:00,70.2,11.1,29.99,SW,225,2.2,3.4,1,0.00,,,0.00,WUHU216HW,2013-07-02 04:44:00,
2013-07-02 00:49:00,70.2,11.1,29.99,SW,225,2.0,3.4,1,0.00,,,0.00,WUHU216HW,2013-07-02 04:49:00,
2013-07-02 00:54:00,70.2,11.1,29.98,SSE,158,1.8,3.1,1,0.00,,,0.00,WUHU216HW,2013-07-02 04:54:00,
2013-07-02 00:59:00,70.2,11.1,29.98,SSW,203,1.1,2.5,1,0.00,,,0.00,WUHU216HW,2013-07-02 04:59:00,
2013-07-02 01:04:00,70.4,11.3,29.99,SSW,203,1.8,1.8,1,0.00,,,0.00,WUHU216HW,2013-07-02 05:04:00,
2013-07-02 01:09:00,70.4,11.3,29.99,WSW,248,1.6,3.4,1,0.00,,,0.00,WUHU216HW,2013-07-02 05:09:00,
2013-07-02 01:14:00,70.4,11.3,29.99,SSE,158,3.1,3.4,1,0.00,,,0.00,WUHU216HW,2013-07-02 05:14:00,
2013-07-02 01:19:00,70.4,11.3,29.99,SE,135,1.1,3.1,1,0.00,,,0.00,WUHU216HW,2013-07-02 05:19:00,
2013-07-02 01:24:00,70.4,11.3,29.99,SW,225,1.8,2.5,1,0.00,,,0.00,WUHU216HW,2013-07-02 05:24:00,
2013-07-02 01:29:00,70.4,11.3,29.99,SSW,203,2.9,4.0,1,0.00,,,0.00,WUHU216HW,2013-07-02 05:29:00,
2013-07-02 01:34:00,70.4,11.3,29.99,SSW,203,1.8,4.0,1,0.00,,,0.00,WUHU216HW,2013-07-02 05:34:00,
2013-07-02 01:39:00,70.2,11.1,29.99,SSW,203,1.8,3.1,1,0.00,,,0.00,WUHU216HW,2013-07-02 05:39:00,
2013-07-02 01:44:00,70.2,11.1,29.99,SE,135,0.4,1.8,1,0.00,,,0.00,WUHU216HW,2013-07-02 05:44:00,
2013-07-02 01:49:00,70.2,11.1,29.99,SSW,203,1.1,1.8,1,0.00,,,0.00,WUHU216HW,2013-07-02 05:49:00,
2013-07-02 01:54:00,70.2,11.1,29.99,SW,225,3.4,3.8,1,0.00,,,0.00,WUHU216HW,2013-07-02 05:54:00,
2013-07-02 01:59:00,70.2,11.1,29.99,SSW,203,1.3,3.8,1,0.00,,,0.00,WUHU216HW,2013-07-02 05:59:00,
2013-07-02 02:04:00,70.2,11.1,29.99,SW,225,1.1,2.0,1,0.00,,,0.00,WUHU216HW,2013-07-02 06:04:00,
2013-07-02 02:09:00,70.2,11.1,29.98,South,180,1.3,2.0,1,0.00,,,0.00,WUHU216HW,2013-07-02 06:09:00,
2013-07-02 02:14:00,70.2,11.1,29.99,SSW,203,1.3,1.8,1,0.00,,,0.00,WUHU216HW,2013-07-02 06:14:00,
2013-07-02 02:19:00,70.2,11.1,29.99,SSW,203,0.4,1.8,1,0.00,,,0.00,WUHU216HW,2013-07-02 06:19:00,
2013-07-02 02:24:00,70.2,11.1,29.98,SW,225,0.9,1.8,1,0.00,,,0.00,WUHU216HW,2013-07-02 06:24:00,
2013-07-02 02:29:00,70.2,11.1,29.98,South,180,1.3,1.8,1,0.00,,,0.00,WUHU216HW,2013-07-02 06:29:00,
2013-07-02 02:34:00,70.2,11.1,29.98,WSW,248,0.7,1.8,1,0.00,,,0.00,WUHU216HW,2013-07-02 06:34:00,
2013-07-02 02:39:00,70.2,11.1,29.98,SSW,203,1.6,1.6,1,0.00,,,0.00,WUHU216HW,2013-07-02 06:39:00,
2013-07-02 02:44:00,70.2,11.1,29.98,SW,225,0.7,1.6,1,0.00,,,0.00,WUHU216HW,2013-07-02 06:44:00,
2013-07-02 02:49:00,70.2,11.1,29.98,SSE,158,1.1,1.6,1,0.00,,,0.00,WUHU216HW,2013-07-02 06:49:00,
2013-07-02 02:54:00,70.2,11.1,29.99,SW,225,1.8,2.0,1,0.00,,,0.00,WUHU216HW,2013-07-02 06:54:00,
2013-07-02 02:59:00,70.2,11.1,29.99,South,180,1.1,2.0,1,0.00,,,0.00,WUHU216HW,2013-07-02 06:59:00,
2013-07-02 03:04:00,70.2,11.1,29.98,South,180,1.3,1.8,1,0.00,,,0.00,WUHU216HW,2013-07-02 07:04:00,
2013-07-02 03:09:00,70.2,11.1,29.98,SE,135,1.8,1.8,1,0.00,,,0.00,WUHU216HW,2013-07-02 07:09:00,
2013-07-02 03:14:00,70.2,11.1,29.99,SE,135,2.9,4.0,1,0.00,,,0.00,WUHU216HW,2013-07-02 07:14:00,
2013-07-02 03:19:00,70.2,11.1,29.99,SW,225,1.6,4.5,1,0.00,,,0.00,WUHU216HW,2013-07-02 07:19:00,
2013-07-02 03:24:00,70.2,11.1,29.98,SSE,158,3.4,4.5,1,0.00,,,0.00,WUHU216HW,2013-07-02 07:24:00,
2013-07-02 03:29:00,70.2,11.1,29.98,SSE,158,2.5,4.3,1,0.00,,,0.00,WUHU216HW,2013-07-02 07:29:00,
2013-07-02 03:34:00,70.2,11.1,29.98,SSE,158,2.2,4.3,1,0.00,,,0.00,WUHU216HW,2013-07-02 07:34:00,
2013-07-02 03:39:00,70.2,11.1,29.98,SSW,203,1.1,3.6,1,0.00,,,0.00,WUHU216HW,2013-07-02 07:39:00,
2013-07-02 03:44:00,70.2,11.1,29.98,SSE,158,1.6,3.6,1,0.00,,,0.00,WUHU216HW,2013-07-02 07:44:00,
2013-07-02 03:49:00,70.2,11.1,29.99,South,180,1.6,2.7,1,0.00,,,0.00,WUHU216HW,2013-07-02 07:49:00,
2013-07-02 03:54:00,70.2,11.1,29.98,SSW,203,1.8,2.7,1,0.00,,,0.00,WUHU216HW,2013-07-02 07:54:00,
2013-07-02 03:59:00,70.2,11.1,29.99,SW,225,1.6,2.2,1,0.00,,,0.00,WUHU216HW,2013-07-02 07:59:00,
2013-07-02 04:04:00,70.2,11.1,29.99,SSE,158,2.5,2.5,1,0.00,,,0.00,WUHU216HW,2013-07-02 08:04:00,
2013-07-02 04:09:00,70.2,11.1,29.99,SSW,203,2.5,3.4,1,0.00,,,0.00,WUHU216HW,2013-07-02 08:09:00,
2013-07-02 04:14:00,70.2,11.1,29.98,SSE,158,2.0,3.4,1,0.00,,,0.00,WUHU216HW,2013-07-02 08:14:00,
2013-07-02 04:19:00,70.2,11.1,29.99,SSE,158,0.4,2.5,1,0.00,,,0.00,WUHU216HW,2013-07-02 08:19:00,
2013-07-02 04:24:00,70.2,11.1,29.99,SSE,158,1.3,2.2,1,0.00,,,0.00,WUHU216HW,2013-07-02 08:24:00,
2013-07-02 04:29:00,70.2,11.1,29.99,SSW,203,1.1,2.2,1,0.00,,,0.00,WUHU216HW,2013-07-02 08:29:00,
2013-07-02 04:34:00,70.2,11.1,29.99,SW,225,1.6,2.0,1,0.00,,,0.00,WUHU216HW,2013-07-02 08:34:00,
2013-07-02 04:39:00,70.2,11.1,29.99,SSE,158,1.8,2.0,1,0.00,,,0.00,WUHU216HW,2013-07-02 08:39:00,
2013-07-02 04:44:00,70.2,11.1,29.99,South,180,0.7,2.0,1,0.00,,,0.00,WUHU216HW,2013-07-02 08:44:00,
2013-07-02 04:49:00,70.2,11.1,29.99,SSW,203,1.6,1.8,1,0.00,,,0.00,WUHU216HW,2013-07-02 08:49:00,
2013-07-02 04:54:00,70.2,11.1,29.99,WSW,248,1.8,5.4,1,0.00,,,0.00,WUHU216HW,2013-07-02 08:54:00,
2013-07-02 04:59:00,70.2,11.1,30.00,SW,225,2.2,5.4,1,0.00,,,0.00,WUHU216HW,2013-07-02 08:59:00,
2013-07-02 05:04:00,70.2,11.1,30.00,SSE,158,1.1,3.4,1,0.00,,,0.00,WUHU216HW,2013-07-02 09:04:00,
2013-07-02 05:09:00,70.2,11.1,30.00,SSW,203,2.2,3.4,1,0.00,,,0.00,WUHU216HW,2013-07-02 09:09:00,
2013-07-02 05:14:00,70.2,11.1,30.00,SSW,203,2.5,3.1,1,0.00,,,0.00,WUHU216HW,2013-07-02 09:14:00,
2013-07-02 05:19:00,70.2,11.1,30.00,WSW,248,3.4,3.4,1,0.00,,,0.00,WUHU216HW,2013-07-02 09:19:00,
2013-07-02 05:24:00,70.2,11.1,30.00,SW,225,3.4,4.3,1,0.00,,,0.00,WUHU216HW,2013-07-02 09:24:00,
2013-07-02 05:29:00,70.2,11.1,30.00,SSE,158,3.4,4.3,1,0.00,,,0.00,WUHU216HW,2013-07-02 09:29:00,
2013-07-02 05:34:00,70.2,11.1,30.01,SSW,203,1.1,3.4,1,0.00,,,0.00,WUHU216HW,2013-07-02 09:34:00,
2013-07-02 05:39:00,70.0,11.0,30.01,SSW,203,1.6,3.1,1,0.00,,,0.00,WUHU216HW,2013-07-02 09:39:00,
2013-07-02 05:44:00,70.0,11.0,30.01,South,180,1.8,3.1,1,0.00,,,0.00,WUHU216HW,2013-07-02 09:44:00,
2013-07-02 05:49:00,70.0,11.0,30.01,SW,225,1.3,1.8,1,0.00,,,0.00,WUHU216HW,2013-07-02 09:49:00,
2013-07-02 05:54:00,70.0,11.0,30.01,SW,225,1.1,2.0,1,0.00,,,0.00,WUHU216HW,2013-07-02 09:54:00,
2013-07-02 05:59:00,70.0,11.0,30.02,SSW,203,1.1,2.0,1,0.00,,,0.00,WUHU216HW,2013-07-02 09:59:00,
2013-07-02 06:04:00,70.0,11.0,30.01,WSW,248,2.5,2.5,1,0.00,,,0.00,WUHU216HW,2013-07-02 10:04:00,
2013-07-02 06:09:00,70.0,11.0,30.02,SW,225,0.9,2.5,1,0.00,,,0.00,WUHU216HW,2013-07-02 10:09:00,
2013-07-02 06:14:00,70.0,11.0,30.01,WSW,248,0.7,2.5,1,0.00,,,0.00,WUHU216HW,2013-07-02 10:14:00,
2013-07-02 06:19:00,70.0,11.0,30.01,SSW,203,1.6,1.8,1,0.00,,,0.00,WUHU216HW,2013-07-02 10:19:00,
2013-07-02 06:24:00,70.2,11.1,30.01,SW,225,2.0,2.0,1,0.00,,,0.00,WUHU216HW,2013-07-02 10:24:00,
2013-07-02 06:29:00,70.2,11.1,30.01,SSW,203,1.1,2.5,1,0.00,,,0.00,WUHU216HW,2013-07-02 10:29:00,
2013-07-02 06:34:00,70.2,11.1,30.01,SSW,203,1.1,2.5,1,0.00,,,0.00,WUHU216HW,2013-07-02 10:34:00,
2013-07-02 06:39:00,70.2,11.1,30.02,SW,225,1.8,1.8,1,0.00,,,0.00,WUHU216HW,2013-07-02 10:39:00,
2013-07-02 06:44:00,70.4,11.3,30.02,SW,225,2.0,2.0,1,0.00,,,0.00,WUHU216HW,2013-07-02 10:44:00,
2013-07-02 06:49:00,70.4,11.3,30.03,SW,225,0.4,2.0,1,0.00,,,0.00,WUHU216HW,2013-07-02 10:49:00,
2013-07-02 06:54:00,70.4,11.3,30.03,South,180,1.1,3.1,1,0.00,,,0.00,WUHU216HW,2013-07-02 10:54:00,
2013-07-02 06:59:00,70.4,11.3,30.02,SSW,203,1.8,3.1,1,0.00,,,0.00,WUHU216HW,2013-07-02 10:59:00,
2013-07-02 07:04:00,70.6,11.3,30.02,SSW,203,2.2,2.9,1,0.00,,,0.00,WUHU216HW,2013-07-02 11:04:00,
2013-07-02 07:09:00,70.6,11.3,30.02,SSW,203,1.1,2.9,1,0.00,,,0.00,WUHU216HW,2013-07-02 11:09:00,
2013-07-02 07:14:00,70.6,11.3,30.03,SW,225,1.8,2.5,1,0.00,,,0.00,WUHU216HW,2013-07-02 11:14:00,
2013-07-02 07:19:00,70.7,11.5,30.03,South,180,0.4,2.5,1,0.00,,,0.00,WUHU216HW,2013-07-02 11:19:00,
2013-07-02 07:24:00,70.9,11.7,30.03,SW,225,1.3,2.9,1,0.00,,,0.00,WUHU216HW,2013-07-02 11:24:00,
2013-07-02 07:30:00,70.9,11.7,30.03,SSW,203,1.6,3.6,1,0.00,,,0.00,WUHU216HW,2013-07-02 11:30:00,
2013-07-02 07:35:00,70.7,11.5,30.03,SSW,203,0.9,3.6,1,0.00,,,0.00,WUHU216HW,2013-07-02 11:35:00,
2013-07-02 07:40:00,70.7,11.5,30.04,South,180,1.8,1.8,1,0.00,,,0.00,WUHU216HW,2013-07-02 11:40:00,
2013-07-02 07:45:00,70.9,11.7,30.03,SW,225,1.3,2.9,1,0.00,,,0.00,WUHU216HW,2013-07-02 11:45:00,
2013-07-02 07:50:00,70.9,11.7,30.03,SW,225,1.6,2.9,1,0.00,,,0.00,WUHU216HW,2013-07-02 11:50:00,
2013-07-02 07:55:00,70.9,11.7,30.03,SSW,203,1.6,1.6,1,0.00,,,0.00,WUHU216HW,2013-07-02 11:55:00,
2013-07-02 08:00:00,70.9,11.7,30.04,SSW,203,1.1,1.6,1,0.00,,,0.00,WUHU216HW,2013-07-02 12:00:00,
2013-07-02 08:05:00,70.9,11.7,30.04,WSW,248,1.1,2.0,1,0.00,,,0.00,WUHU216HW,2013-07-02 12:05:00,
2013-07-02 08:10:00,71.3,12.0,30.04,SSW,203,1.1,2.0,1,0.00,,,0.00,WUHU216HW,2013-07-02 12:10:00,
2013-07-02 08:15:00,71.5,12.1,30.04,South,180,1.3,2.0,1,0.00,,,0.00,WUHU216HW,2013-07-02 12:15:00,
2013-07-02 08:20:00,71.6,12.2,30.04,SW,225,1.3,2.5,1,0.00,,,0.00,WUHU216HW,2013-07-02 12:20:00,
2013-07-02 08:25:00,72.0,12.5,30.04,SW,225,1.6,2.7,1,0.00,,,0.00,WUHU216HW,2013-07-02 12:25:00,
2013-07-02 08:30:00,72.4,12.8,30.04,SSE,158,1.3,2.7,1,0.00,,,0.00,WUHU216HW,2013-07-02 12:30:00,
2013-07-02 08:35:00,72.7,13.2,30.05,South,180,2.2,2.2,1,0.00,,,0.00,WUHU216HW,2013-07-02 12:35:00,
2013-07-02 08:40:00,72.9,13.2,30.04,SSW,203,1.1,2.2,1,0.00,,,0.00,WUHU216HW,2013-07-02 12:40:00,
2013-07-02 08:45:00,72.7,13.2,30.05,SW,225,1.1,2.2,1,0.00,,,0.00,WUHU216HW,2013-07-02 12:45:00,
2013-07-02 08:50:00,72.5,13.0,30.04,SSE,158,0.4,2.2,1,0.00,,,0.00,WUHU216HW,2013-07-02 12:50:00,
2013-07-02 08:55:00,72.5,13.0,30.05,SW,225,1.1,2.0,1,0.00,,,0.00,WUHU216HW,2013-07-02 12:55:00,
2013-07-02 09:00:00,72.4,12.8,30.05,SSE,158,1.3,2.2,1,0.00,,,0.00,WUHU216HW,2013-07-02 13:00:00,
2013-07-02 09:05:00,72.5,13.0,30.05,SW,225,1.6,2.2,1,0.00,,,0.00,WUHU216HW,2013-07-02 13:05:00,
2013-07-02 09:10:00,72.4,12.8,30.05,SW,225,1.1,1.8,1,0.00,,,0.00,WUHU216HW,2013-07-02 13:10:00,
2013-07-02 09:15:00,72.5,13.0,30.04,SSW,203,1.1,1.6,1,0.00,,,0.00,WUHU216HW,2013-07-02 13:15:00,
2013-07-02 09:20:00,72.7,13.2,30.04,SSE,158,2.0,2.2,1,0.00,,,0.00,WUHU216HW,2013-07-02 13:20:00,
2013-07-02 09:25:00,72.7,13.2,30.04,SW,225,2.2,3.6,1,0.00,,,0.00,WUHU216HW,2013-07-02 13:25:00,
2013-07-02 09:30:00,73.1,13.4,30.04,South,180,2.5,3.6,1,0.00,,,0.00,WUHU216HW,2013-07-02 13:30:00,
2013-07-02 09:35:00,73.3,13.5,30.04,SW,225,3.4,3.4,1,0.00,,,0.00,WUHU216HW,2013-07-02 13:35:00,
2013-07-02 09:40:00,73.4,13.7,30.04,SSW,203,1.8,3.4,1,0.00,,,0.00,WUHU216HW,2013-07-02 13:40:00,
2013-07-02 09:45:00,73.6,13.8,30.04,SSW,203,2.5,3.8,1,0.00,,,0.00,WUHU216HW,2013-07-02 13:45:00,
2013-07-02 09:50:00,73.8,14.0,30.04,SSW,203,1.1,3.8,1,0.00,,,0.00,WUHU216HW,2013-07-02 13:50:00,
2013-07-02 09:55:00,73.8,14.0,30.05,SW,225,2.0,3.4,1,0.00,,,0.00,WUHU216HW,2013-07-02 13:55:00,
2013-07-02 10:00:00,73.8,14.0,30.05,SW,225,1.8,2.7,1,0.00,,,0.00,WUHU216HW,2013-07-02 14:00:00,
2013-07-02 10:05:00,73.6,13.8,30.05,WSW,248,1.8,3.4,1,0.00,,,0.00,WUHU216HW,2013-07-02 14:05:00,
2013-07-02 10:10:00,73.4,13.7,30.05,South,180,3.6,3.6,1,0.00,,,0.00,WUHU216HW,2013-07-02 14:10:00,
2013-07-02 10:15:00,73.4,13.7,30.05,SSW,203,0.9,3.6,1,0.00,,,0.00,WUHU216HW,2013-07-02 14:15:00,
2013-07-02 10:20:00,73.4,13.7,30.05,SW,225,2.2,6.3,1,0.00,,,0.00,WUHU216HW,2013-07-02 14:20:00,
2013-07-02 10:25:00,73.4,13.7,30.05,WSW,248,1.6,6.3,1,0.00,,,0.00,WUHU216HW,2013-07-02 14:25:00,
2013-07-02 10:30:00,73.4,13.7,30.05,SSW,203,1.1,2.2,1,0.00,,,0.00,WUHU216HW,2013-07-02 14:30:00,
2013-07-02 10:35:00,74.2,14.2,30.06,SSE,158,2.2,2.2,1,0.00,,,0.00,WUHU216HW,2013-07-02 14:35:00,
2013-07-02 10:40:00,74.9,14.7,30.06,SW,225,1.8,2.2,1,0.00,,,0.00,WUHU216HW,2013-07-02 14:40:00,
2013-07-02 10:45:00,75.4,15.1,30.06,SSE,158,1.8,2.2,1,0.00,,,0.00,WUHU216HW,2013-07-02 14:45:00,
2013-07-02 10:50:00,75.6,15.2,30.06,SW,225,2.5,2.9,1,0.00,,,0.00,WUHU216HW,2013-07-02 14:50:00,
2013-07-02 10:55:00,75.8,15.4,30.06,SW,225,2.2,2.9,1,0.00,,,0.00,WUHU216HW,2013-07-02 14:55:00,
2013-07-02 11:00:00,75.8,15.4,30.06,SW,225,2.5,2.9,1,0.00,,,0.00,WUHU216HW,2013-07-02 15:00:00,
2013-07-02 11:05:00,76.0,15.5,30.06,SSW,203,1.1,3.1,1,0.00,,,0.00,WUHU216HW,2013-07-02 15:05:00,
2013-07-02 11:10:00,76.1,15.7,30.07,WSW,248,0.4,3.1,1,0.00,,,0.00,WUHU216HW,2013-07-02 15:10:00,
2013-07-02 11:15:00,76.0,15.5,30.06,SSE,158,2.5,2.5,1,0.00,,,0.00,WUHU216HW,2013-07-02 15:15:00,
2013-07-02 11:20:00,76.0,15.5,30.06,SSW,203,1.6,3.4,1,0.00,,,0.00,WUHU216HW,2013-07-02 15:20:00,
2013-07-02 11:25:00,76.0,15.5,30.06,SW,225,2.7,3.4,1,0.00,,,0.00,WUHU216HW,2013-07-02 15:25:00,
2013-07-02 11:30:00,75.6,15.2,30.06,SW,225,1.1,2.7,1,0.00,,,0.00,WUHU216HW,2013-07-02 15:30:00,
2013-07-02 11:35:00,76.0,15.5,30.06,SW,225,3.4,3.4,1,0.00,,,0.00,WUHU216HW,2013-07-02 15:35:00,
2013-07-02 11:40:00,76.3,15.9,30.06,SW,225,2.0,3.4,1,0.00,,,0.00,WUHU216HW,2013-07-02 15:40:00,
2013-07-02 11:45:00,77.0,16.4,30.07,SW,225,2.0,2.7,1,0.00,,,0.00,WUHU216HW,2013-07-02 15:45:00,
2013-07-02 11:50:00,77.6,16.7,30.06,SW,225,0.7,2.7,1,0.00,,,0.00,WUHU216HW,2013-07-02 15:50:00,
2013-07-02 11:55:00,77.9,17.0,30.06,South,180,1.8,2.7,1,0.00,,,0.00,WUHU216HW,2013-07-02 15:55:00,
2013-07-02 12:00:00,78.5,17.4,30.07,West,270,0.7,2.0,1,0.00,,,0.00,WUHU216HW,2013-07-02 16:00:00,
2013-07-02 12:05:00,79.0,17.8,30.07,SSW,203,2.9,2.9,1,0.00,,,0.00,WUHU216HW,2013-07-02 16:05:00,
2013-07-02 12:10:00,79.4,18.1,30.07,SW,225,1.6,3.4,1,0.00,,,0.00,WUHU216HW,2013-07-02 16:10:00,
2013-07-02 12:15:00,80.5,18.9,30.07,SSW,203,0.9,3.4,1,0.00,,,0.00,WUHU216HW,2013-07-02 16:15:00,
2013-07-02 12:20:00,81.0,19.4,30.07,South,180,2.2,2.2,1,0.00,,,0.00,WUHU216HW,2013-07-02 16:20:00,
2013-07-02 12:25:00,80.5,18.9,30.07,SSW,203,2.5,2.7,1,0.00,,,0.00,WUHU216HW,2013-07-02 16:25:00,
2013-07-02 12:30:00,80.8,19.3,30.07,South,180,2.5,3.4,1,0.00,,,0.00,WUHU216HW,2013-07-02 16:30:00,
2013-07-02 12:35:00,80.3,18.8,30.07,SSW,203,3.4,3.4,1,0.00,,,0.00,WUHU216HW,2013-07-02 16:35:00,
2013-07-02 12:40:00,79.6,18.2,30.07,SSW,203,2.7,3.4,1,0.00,,,0.00,WUHU216HW,2013-07-02 16:40:00,
2013-07-02 12:45:00,79.4,18.1,30.07,South,180,1.1,2.9,1,0.00,,,0.00,WUHU216HW,2013-07-02 16:45:00,
2013-07-02 12:50:00,80.1,18.6,30.07,NNE,23,1.3,2.9,1,0.00,,,0.00,WUHU216HW,2013-07-02 16:50:00,
2013-07-02 12:55:00,80.8,19.3,30.07,North,0,3.6,3.6,1,0.00,,,0.00,WUHU216HW,2013-07-02 16:55:00,
2013-07-02 13:00:00,80.8,19.3,30.06,SW,225,3.6,3.6,1,0.00,,,0.00,WUHU216HW,2013-07-02 17:00:00,
2013-07-02 13:05:00,80.6,19.1,30.06,SSW,203,4.7,5.8,1,0.00,,,0.00,WUHU216HW,2013-07-02 17:05:00,
2013-07-02 13:10:00,80.6,19.1,30.06,ESE,113,0.2,5.8,1,0.00,,,0.00,WUHU216HW,2013-07-02 17:10:00,
2013-07-02 13:15:00,80.6,19.1,30.06,South,180,2.5,4.5,1,0.00,,,0.00,WUHU216HW,2013-07-02 17:15:00,
2013-07-02 13:20:00,80.1,18.6,30.06,South,180,2.2,4.5,1,0.00,,,0.00,WUHU216HW,2013-07-02 17:20:00,
2013-07-02 13:25:00,79.2,17.9,30.06,NE,45,2.2,3.4,1,0.00,,,0.00,WUHU216HW,2013-07-02 17:25:00,
2013-07-02 13:30:00,79.4,18.1,30.06,SSE,158,2.2,2.7,1,0.00,,,0.00,WUHU216HW,2013-07-02 17:30:00,
2013-07-02 13:35:00,80.3,18.8,30.06,SSW,203,6.3,6.3,1,0.00,,,0.00,WUHU216HW,2013-07-02 17:35:00,
2013-07-02 13:40:00,80.3,18.8,30.05,NE,45,2.5,6.3,1,0.00,,,0.00,WUHU216HW,2013-07-02 17:40:00,
2013-07-02 13:45:00,80.3,18.8,30.06,SSE,158,4.0,4.0,1,0.00,,,0.00,WUHU216HW,2013-07-02 17:45:00,
2013-07-02 13:50:00,80.1,18.6,30.06,SSW,203,1.1,4.0,1,0.00,,,0.00,WUHU216HW,2013-07-02 17:50:00,
2013-07-02 13:55:00,80.3,18.8,30.05,ESE,113,2.9,3.1,1,0.00,,,0.00,WUHU216HW,2013-07-02 17:55:00,
2013-07-02 14:00:00,80.6,19.1,30.05,SSW,203,1.6,3.1,1,0.00,,,0.00,WUHU216HW,2013-07-02 18:00:00,
2013-07-02 14:05:00,82.3,20.3,30.05,SSE,158,2.0,2.5,1,0.00,,,0.00,WUHU216HW,2013-07-02 18:05:00,
2013-07-02 14:10:00,83.0,20.9,30.04,SE,135,1.8,5.8,1,0.00,,,0.00,WUHU216HW,2013-07-02 18:10:00,
2013-07-02 14:15:00,83.5,21.2,30.04,SSE,158,2.9,5.8,1,0.00,,,0.00,WUHU216HW,2013-07-02 18:15:00,
2013-07-02 14:20:00,84.2,21.8,30.04,ENE,68,3.1,5.1,1,0.00,,,0.00,WUHU216HW,2013-07-02 18:20:00,
2013-07-02 14:25:00,85.0,22.3,30.04,SW,225,4.0,5.1,1,0.00,,,0.00,WUHU216HW,2013-07-02 18:25:00,
2013-07-02 14:30:00,84.6,22.1,30.04,SSE,158,2.5,4.0,1,0.00,,,0.00,WUHU216HW,2013-07-02 18:30:00,
2013-07-02 14:35:00,83.7,21.4,30.04,South,180,2.7,2.9,1,0.00,,,0.00,WUHU216HW,2013-07-02 18:35:00,
2013-07-02 14:40:00,83.5,21.2,30.04,WSW,248,2.2,2.9,1,0.00,,,0.00,WUHU216HW,2013-07-02 18:40:00,
2013-07-02 14:45:00,82.4,20.5,30.04,WSW,248,5.4,5.4,1,0.00,,,0.00,WUHU216HW,2013-07-02 18:45:00,
2013-07-02 14:50:00,82.4,20.5,30.04,South,180,2.9,5.4,1,0.00,,,0.00,WUHU216HW,2013-07-02 18:50:00,
2013-07-02 14:56:00,82.6,20.6,30.04,SE,135,3.1,4.3,1,0.00,,,0.00,WUHU216HW,2013-07-02 18:56:00,
2013-07-02 15:01:00,82.8,20.8,30.04,SW,225,2.9,4.0,1,0.00,,,0.00,WUHU216HW,2013-07-02 19:01:00,
2013-07-02 15:06:00,82.6,20.6,30.04,ESE,113,1.8,4.7,1,0.00,,,0.00,WUHU216HW,2013-07-02 19:06:00,
2013-07-02 15:11:00,82.6,20.6,30.04,WSW,248,4.0,4.7,1,0.00,,,0.00,WUHU216HW,2013-07-02 19:11:00,
2013-07-02 15:16:00,83.2,21.1,30.03,South,180,2.9,4.7,1,0.00,,,0.00,WUHU216HW,2013-07-02 19:16:00,
2013-07-02 15:21:00,83.3,21.2,30.04,SSW,203,1.8,4.0,1,0.00,,,0.00,WUHU216HW,2013-07-02 19:21:00,
2013-07-02 15:26:00,83.2,21.1,30.03,SSW,203,3.1,3.6,1,0.00,,,0.00,WUHU216HW,2013-07-02 19:26:00,
2013-07-02 15:31:00,82.8,20.8,30.03,SW,225,2.5,3.4,1,0.00,,,0.00,WUHU216HW,2013-07-02 19:31:00,
2013-07-02 15:36:00,82.8,20.8,30.04,South,180,2.2,3.1,1,0.00,,,0.00,WUHU216HW,2013-07-02 19:36:00,
2013-07-02 15:41:00,82.6,20.6,30.03,SW,225,3.1,3.1,1,0.00,,,0.00,WUHU216HW,2013-07-02 19:41:00,
2013-07-02 15:46:00,83.2,21.1,30.03,SSE,158,4.0,4.0,1,0.00,,,0.00,WUHU216HW,2013-07-02 19:46:00,
2013-07-02 15:51:00,83.5,21.2,30.03,SSE,158,3.8,4.0,1,0.00,,,0.00,WUHU216HW,2013-07-02 19:51:00,
2013-07-02 15:56:00,83.5,21.2,30.03,SW,225,2.9,3.8,1,0.00,,,0.00,WUHU216HW,2013-07-02 19:56:00,
2013-07-02 16:01:00,83.2,21.1,30.02,SW,225,2.2,3.8,1,0.00,,,0.00,WUHU216HW,2013-07-02 20:01:00,
2013-07-02 16:06:00,82.8,20.8,30.02,South,180,2.5,5.4,1,0.00,,,0.00,WUHU216HW,2013-07-02 20:06:00,
2013-07-02 16:11:00,82.4,20.5,30.02,SW,225,2.5,5.4,1,0.00,,,0.00,WUHU216HW,2013-07-02 20:11:00,
2013-07-02 16:16:00,82.4,20.5,30.02,South,180,2.5,5.8,1,0.00,,,0.00,WUHU216HW,2013-07-02 20:16:00,
2013-07-02 16:21:00,82.4,20.5,30.02,SW,225,2.0,5.8,1,0.00,,,0.00,WUHU216HW,2013-07-02 20:21:00,
2013-07-02 16:26:00,82.8,20.8,30.02,SSW,203,3.4,4.0,1,0.00,,,0.00,WUHU216HW,2013-07-02 20:26:00,
2013-07-02 16:31:00,82.6,20.6,30.02,SSE,158,0.7,3.8,1,0.00,,,0.00,WUHU216HW,2013-07-02 20:31:00,
2013-07-02 16:36:00,82.4,20.5,30.02,SW,225,2.5,3.8,1,0.00,,,0.00,WUHU216HW,2013-07-02 20:36:00,
2013-07-02 16:41:00,81.9,20.1,30.02,SW,225,2.9,4.3,1,0.00,,,0.00,WUHU216HW,2013-07-02 20:41:00,
2013-07-02 16:46:00,81.0,19.4,30.02,SW,225,1.8,4.3,1,0.00,,,0.00,WUHU216HW,2013-07-02 20:46:00,
2013-07-02 16:51:00,80.6,19.1,30.02,South,180,3.8,3.8,1,0.00,,,0.00,WUHU216HW,2013-07-02 20:51:00,
2013-07-02 16:56:00,79.9,18.6,30.02,SSW,203,1.6,4.5,1,0.00,,,0.00,WUHU216HW,2013-07-02 20:56:00,
2013-07-02 17:01:00,79.4,18.1,30.02,SW,225,1.1,4.5,1,0.00,,,0.00,WUHU216HW,2013-07-02 21:01:00,
2013-07-02 17:06:00,79.2,17.9,30.02,South,180,1.1,2.7,1,0.00,,,0.00,WUHU216HW,2013-07-02 21:06:00,
2013-07-02 17:11:00,79.0,17.8,30.02,SW,225,1.3,3.4,1,0.00,,,0.00,WUHU216HW,2013-07-02 21:11:00,
2013-07-02 17:16:00,78.8,17.6,30.02,South,180,2.0,3.4,1,0.00,,,0.00,WUHU216HW,2013-07-02 21:16:00,
2013-07-02 17:21:00,78.5,17.4,30.02,SSW,203,1.1,3.1,1,0.00,,,0.00,WUHU216HW,2013-07-02 21:21:00,
2013-07-02 17:26:00,78.1,17.1,30.03,SW,225,1.8,2.5,1,0.00,,,0.00,WUHU216HW,2013-07-02 21:26:00,
2013-07-02 17:31:00,78.1,17.1,30.03,SW,225,0.0,2.0,1,0.00,,,0.00,WUHU216HW,2013-07-02 21:31:00,
2013-07-02 17:36:00,77.9,17.0,30.03,NE,45,1.1,2.2,1,0.00,,,0.00,WUHU216HW,2013-07-02 21:36:00,
2013-07-02 17:41:00,77.8,16.9,30.03,East,90,0.7,2.2,1,0.00,,,0.00,WUHU216HW,2013-07-02 21:41:00,
2013-07-02 17:46:00,77.8,16.9,30.03,SW,225,0.4,2.5,1,0.00,,,0.00,WUHU216HW,2013-07-02 21:46:00,
2013-07-02 17:51:00,77.8,16.9,30.03,SSW,203,1.1,3.6,1,0.00,,,0.00,WUHU216HW,2013-07-02 21:51:00,
2013-07-02 17:56:00,77.8,16.9,30.03,WSW,248,0.7,3.6,1,0.00,,,0.00,WUHU216HW,2013-07-02 21:56:00,
2013-07-02 18:01:00,77.9,17.0,30.03,SW,225,1.1,2.5,1,0.00,,,0.00,WUHU216HW,2013-07-02 22:01:00,
2013-07-02 18:06:00,78.1,17.1,30.04,South,180,2.0,3.4,1,0.00,,,0.00,WUHU216HW,2013-07-02 22:06:00,
2013-07-02 18:11:00,78.1,17.1,30.03,North,0,1.8,3.4,1,0.00,,,0.00,WUHU216HW,2013-07-02 22:11:00,
2013-07-02 18:16:00,78.1,17.1,30.03,South,180,2.2,5.1,1,0.00,,,0.00,WUHU216HW,2013-07-02 22:16:00,
2013-07-02 18:21:00,78.1,17.1,30.04,SSW,203,0.9,5.1,1,0.00,,,0.00,WUHU216HW,2013-07-02 22:21:00,
2013-07-02 18:26:00,78.1,17.1,30.04,South,180,2.7,3.1,1,0.00,,,0.00,WUHU216HW,2013-07-02 22:26:00,
2013-07-02 18:31:00,78.1,17.1,30.04,SSW,203,1.8,2.7,1,0.00,,,0.00,WUHU216HW,2013-07-02 22:31:00,
2013-07-02 18:36:00,78.1,17.1,30.04,South,180,2.5,4.0,1,0.00,,,0.00,WUHU216HW,2013-07-02 22:36:00,
2013-07-02 18:41:00,78.1,17.1,30.04,SW,225,1.6,4.0,1,0.00,,,0.00,WUHU216HW,2013-07-02 22:41:00,
2013-07-02 18:46:00,78.1,17.1,30.04,WSW,248,1.6,2.2,1,0.00,,,0.00,WUHU216HW,2013-07-02 22:46:00,
2013-07-02 18:51:00,77.9,17.0,30.04,SW,225,1.8,4.5,1,0.00,,,0.00,WUHU216HW,2013-07-02 22:51:00,
2013-07-02 18:56:00,77.6,16.7,30.04,WSW,248,1.1,4.5,1,0.00,,,0.00,WUHU216HW,2013-07-02 22:56:00,
2013-07-02 19:01:00,77.4,16.7,30.04,SSW,203,1.1,3.1,1,0.00,,,0.00,WUHU216HW,2013-07-02 23:01:00,
2013-07-02 19:06:00,77.4,16.7,30.05,SE,135,1.3,3.1,1,0.00,,,0.00,WUHU216HW,2013-07-02 23:06:00,
2013-07-02 19:11:00,77.0,16.4,30.05,SE,135,2.2,2.2,1,0.00,,,0.00,WUHU216HW,2013-07-02 23:11:00,
2013-07-02 19:16:00,77.0,16.4,30.05,SSW,203,1.8,2.2,1,0.00,,,0.00,WUHU216HW,2013-07-02 23:16:00,
2013-07-02 19:21:00,76.7,16.1,30.05,SSW,203,1.3,2.5,1,0.00,,,0.00,WUHU216HW,2013-07-02 23:21:00,
2013-07-02 19:26:00,76.3,15.9,30.06,SSW,203,1.1,2.5,1,0.00,,,0.00,WUHU216HW,2013-07-02 23:26:00,
2013-07-02 19:31:00,76.0,15.5,30.06,SW,225,0.9,3.4,1,0.00,,,0.00,WUHU216HW,2013-07-02 23:31:00,
2013-07-02 19:36:00,75.8,15.4,30.06,SSE,158,1.1,3.4,1,0.00,,,0.00,WUHU216HW,2013-07-02 23:36:00,
2013-07-02 19:41:00,75.2,14.9,30.06,SSW,203,2.5,2.5,1,0.00,,,0.00,WUHU216HW,2013-07-02 23:41:00,
2013-07-02 19:46:00,75.2,14.9,30.06,South,180,1.3,2.7,1,0.00,,,0.00,WUHU216HW,2013-07-02 23:46:00,
2013-07-02 19:51:00,74.9,14.7,30.06,SSW,203,0.9,2.7,1,0.00,,,0.00,WUHU216HW,2013-07-02 23:51:00,
2013-07-02 19:56:00,74.7,14.6,30.06,SW,225,0.4,1.8,1,0.00,,,0.00,WUHU216HW,2013-07-02 23:56:00,
2013-07-02 20:01:00,74.5,14.4,30.06,South,180,1.8,1.8,1,0.00,,,0.00,WUHU216HW,2013-07-03 00:01:00,
2013-07-02 20:06:00,74.2,14.2,30.06,SW,225,1.6,1.8,1,0.00,,,0.00,WUHU216HW,2013-07-03 00:06:00,
2013-07-02 20:11:00,73.8,14.0,30.06,SSW,203,0.7,2.0,1,0.00,,,0.00,WUHU216HW,2013-07-03 00:11:00,
2013-07-02 20:16:00,73.6,13.8,30.06,SSW,203,0.9,2.0,1,0.00,,,0.00,WUHU216HW,2013-07-03 00:16:00,
2013-07-02 20:21:00,73.4,13.7,30.06,SSW,203,1.1,1.8,1,0.00,,,0.00,WUHU216HW,2013-07-03 00:21:00,
2013-07-02 20:26:00,73.1,13.4,30.07,SSW,203,1.6,2.5,1,0.00,,,0.00,WUHU216HW,2013-07-03 00:26:00,
2013-07-02 20:31:00,73.1,13.4,30.07,SW,225,1.6,2.5,1,0.00,,,0.00,WUHU216HW,2013-07-03 00:31:00,
2013-07-02 20:36:00,72.9,13.2,30.07,South,180,2.0,2.0,1,0.00,,,0.00,WUHU216HW,2013-07-03 00:36:00,
2013-07-02 20:41:00,72.7,13.2,30.07,SW,225,0.7,2.0,1,0.00,,,0.00,WUHU216HW,2013-07-03 00:41:00,
2013-07-02 20:46:00,72.7,13.2,30.07,SW,225,1.8,2.0,1,0.00,,,0.00,WUHU216HW,2013-07-03 00:46:00,
2013-07-02 20:51:00,72.4,12.8,30.07,SSW,203,2.2,2.2,1,0.00,,,0.00,WUHU216HW,2013-07-03 00:51:00,
2013-07-02 20:56:00,72.4,12.8,30.07,South,180,1.1,2.7,1,0.00,,,0.00,WUHU216HW,2013-07-03 00:56:00,
2013-07-02 21:01:00,72.5,13.0,30.07,SSW,203,1.8,2.7,1,0.00,,,0.00,WUHU216HW,2013-07-03 01:01:00,
2013-07-02 21:06:00,72.4,12.8,30.07,South,180,2.2,2.7,1,0.00,,,0.00,WUHU216HW,2013-07-03 01:06:00,
2013-07-02 21:11:00,72.4,12.8,30.08,SW,225,0.9,3.8,1,0.00,,,0.00,WUHU216HW,2013-07-03 01:11:00,
2013-07-02 21:16:00,72.4,12.8,30.08,SW,225,1.3,3.8,1,0.00,,,0.00,WUHU216HW,2013-07-03 01:16:00,
2013-07-02 21:21:00,72.4,12.8,30.08,SSW,203,1.8,2.5,1,0.00,,,0.00,WUHU216HW,2013-07-03 01:21:00,
2013-07-02 21:26:00,72.2,12.7,30.09,SSW,203,1.8,2.5,1,0.00,,,0.00,WUHU216HW,2013-07-03 01:26:00,
2013-07-02 21:31:00,72.2,12.7,30.09,SW,225,3.6,3.6,1,0.00,,,0.00,WUHU216HW,2013-07-03 01:31:00,
2013-07-02 21:36:00,72.2,12.7,30.09,SSW,203,1.8,3.6,1,0.00,,,0.00,WUHU216HW,2013-07-03 01:36:00,
2013-07-02 21:41:00,72.2,12.7,30.09,SSE,158,1.8,3.6,1,0.00,,,0.00,WUHU216HW,2013-07-03 01:41:00,
2013-07-02 21:47:00,72.2,12.7,30.09,SE,135,2.9,3.1,1,0.00,,,0.00,WUHU216HW,2013-07-03 01:47:00,
2013-07-02 21:52:00,72.2,12.7,30.09,SW,225,2.2,3.6,1,0.00,,,0.00,WUHU216HW,2013-07-03 01:52:00,
2013-07-02 21:57:00,72.2,12.7,30.09,SW,225,1.8,3.6,1,0.00,,,0.00,WUHU216HW,2013-07-03 01:57:00,
2013-07-02 22:02:00,72.2,12.7,30.09,SSW,203,2.0,2.7,1,0.00,,,0.00,WUHU216HW,2013-07-03 02:02:00,
2013-07-02 22:07:00,72.2,12.7,30.09,SW,225,2.0,4.5,1,0.00,,,0.00,WUHU216HW,2013-07-03 02:07:00,
2013-07-02 22:13:00,72.2,12.7,30.09,SSW,203,2.0,4.5,1,0.00,,,0.00,WUHU216HW,2013-07-03 02:13:00,
2013-07-02 22:18:00,72.2,12.7,30.09,South,180,4.0,4.0,1,0.00,,,0.00,WUHU216HW,2013-07-03 02:18:00,
2013-07-02 22:23:00,72.0,12.5,30.09,SSW,203,1.1,4.0,1,0.00,,,0.00,WUHU216HW,2013-07-03 02:23:00,
2013-07-02 22:28:00,72.0,12.5,30.09,SSW,203,1.1,2.5,1,0.00,,,0.00,WUHU216HW,2013-07-03 02:28:00,
2013-07-02 22:33:00,72.0,12.5,30.09,SW,225,1.3,2.5,1,0.00,,,0.00,WUHU216HW,2013-07-03 02:33:00,
2013-07-02 22:38:00,72.0,12.5,30.09,SSW,203,1.3,2.5,1,0.00,,,0.00,WUHU216HW,2013-07-03 02:38:00,
2013-07-02 22:43:00,72.0,12.5,30.09,SSW,203,1.1,2.5,1,0.00,,,0.00,WUHU216HW,2013-07-03 02:43:00,
2013-07-02 22:48:00,72.0,12.5,30.09,SW,225,1.1,3.1,1,0.00,,,0.00,WUHU216HW,2013-07-03 02:48:00,
2013-07-02 22:53:00,71.8,12.4,30.09,SW,225,1.1,3.1,1,0.00,,,0.00,WUHU216HW,2013-07-03 02:53:00,
2013-07-02 22:58:00,71.8,12.4,30.10,SSW,203,1.6,1.6,1,0.00,,,0.00,WUHU216HW,2013-07-03 02:58:00,
2013-07-02 23:03:00,71.6,12.2,30.09,SW,225,1.6,1.6,1,0.00,,,0.00,WUHU216HW,2013-07-03 03:03:00,
2013-07-02 23:08:00,71.6,12.2,30.10,SW,225,1.1,2.5,1,0.00,,,0.00,WUHU216HW,2013-07-03 03:08:00,
2013-07-02 23:13:00,71.6,12.2,30.10,SSW,203,1.3,2.5,1,0.00,,,0.00,WUHU216HW,2013-07-03 03:13:00,
2013-07-02 23:18:00,71.6,12.2,30.10,South,180,1.1,2.5,1,0.00,,,0.00,WUHU216HW,2013-07-03 03:18:00,
2013-07-02 23:23:00,71.5,12.1,30.10,SW,225,1.3,1.8,1,0.00,,,0.00,WUHU216HW,2013-07-03 03:23:00,
2013-07-02 23:29:00,71.5,12.1,30.10,SW,225,1.3,1.8,1,0.00,,,0.00,WUHU216HW,2013-07-03 03:29:00,
2013-07-02 23:34:00,71.3,12.0,30.10,SSW,203,1.1,2.2,1,0.00,,,0.00,WUHU216HW,2013-07-03 03:34:00,
2013-07-02 23:39:00,71.3,12.0,30.09,SW,225,0.4,2.5,1,0.00,,,0.00,WUHU216HW,2013-07-03 03:39:00,
2013-07-02 23:44:00,71.3,12.0,30.09,SSE,158,1.1,2.5,1,0.00,,,0.00,WUHU216HW,2013-07-03 03:44:00,
2013-07-02 23:49:00,71.1,11.8,30.09,SW,225,1.3,1.8,1,0.00,,,0.00,WUHU216HW,2013-07-03 03:49:00,
2013-07-02 23:54:00,70.9,11.7,30.09,SSW,203,1.6,2.5,1,0.00,,,0.00,WUHU216HW,2013-07-03 03:54:00,
2013-07-02 23:59:00,70.9,11.7,30.09,WSW,248,1.3,2.5,1,0.00,,,0.00,WUHU216HW,2013-07-03 03:59:00,